User: anonymous   Login
Location: Unspecified
(0.0000°N, 0.0000°E)
Time: 20:16:27
(UTC+00:00)
Language:

STARLINK-5415 - Orbit

View from above orbital plane
View from above orbital plane
View from above satellite
View from above satellite

Ground track
Ground track

The orbit is defined by the following mean orbital elements,

1 54796U          26145.13453646 +.00000000 +00000-0 +29788-5 0 00003
2 54796  53.2141  45.6924 0001377  71.5925 288.5217 15.08838472    05
Epoch (UTC): 25 May 2026 03:13:43
Eccentricity: 0.0001377
inclination: 53.2141°
perigee height: 539 km
apogee height: 541 km
right ascension of ascending node: 45.6924°
argument of perigee: 71.5925°
revolutions per day: 15.08838472
mean anomaly at epoch: 288.5217°

The dashed part of the orbit path shows where the satellite is in the earth's shadow,  

DLR